This is the latest recevied weather packets stored in our database for station/object OK1FET-5. If no packets are shown the sender has not sent any weather packets the latest 10 day(s).
| Time | Temp. | Humidity | Pressure | Rain* | Wind** | Luminosity | Snow |
|---|---|---|---|---|---|---|---|
| 1778083324 | 21.67° C | 49% | 1005.1 hPa | - | - | - | - |
| 1778083028 | 21.67° C | 49% | 1005.2 hPa | - | - | - | - |
| 1778082733 | 21.11° C | 49% | 1005.3 hPa | - | - | - | - |
| 1778082439 | 21.11° C | 49% | 1005.6 hPa | - | - | - | - |
| 1778082144 | 20.56° C | 48% | 1005.7 hPa | - | - | - | - |
| 1778082143 | 20.56° C | 48% | 1005.7 hPa | - | - | - | - |
| 1778081848 | 20.56° C | 48% | 1005.9 hPa | - | - | - | - |
| 1778081553 | 20.56° C | 48% | 1006 hPa | - | - | - | - |
| 1778081258 | 21.11° C | 47% | 1006 hPa | - | - | - | - |
| 1778080963 | 21.11° C | 46% | 1006 hPa | - | - | - | - |
| 1778080668 | 21.67° C | 46% | 1005.9 hPa | - | - | - | - |
| 1778080373 | 21.11° C | 47% | 1006 hPa | - | - | - | - |
| 1778080078 | 21.11° C | 48% | 1006 hPa | - | - | - | - |
| 1778079783 | 21.11° C | 48% | 1005.9 hPa | - | - | - | - |
| 1778079488 | 21.11° C | 47% | 1006 hPa | - | - | - | - |
| 1778079193 | 21.11° C | 47% | 1006.1 hPa | - | - | - | - |
| 1778078897 | 21.11° C | 47% | 1006.1 hPa | - | - | - | - |
| 1778078602 | 21.11° C | 47% | 1006.1 hPa | - | - | - | - |
| 1778078307 | 21.67° C | 47% | 1006.1 hPa | - | - | - | - |
| 1778078012 | 21.67° C | 47% | 1006.1 hPa | - | - | - | - |
| 1778077717 | 21.67° C | 47% | 1006.1 hPa | - | - | - | - |
| 1778077422 | 22.22° C | 48% | 1006 hPa | - | - | - | - |
| 1778076831 | 22.78° C | 47% | 1006.2 hPa | - | - | - | - |
| 1778076536 | 23.33° C | 47% | 1006.2 hPa | - | - | - | - |
| 1778076240 | 23.89° C | 47% | 1006.2 hPa | - | - | - | - |
* Rain since midnight (hover to see other rain measurements)
** Current wind speed in m/s (hover to see current wind gust speed)